sat.trackr.live / text

‹ back to catalog

TRANSPORTER-14 OBJECT AJ

NORAD 64560 · 2025-135AJ

PAYLOAD ACTIVE UNKNOWN

§ Identity

Operator
Country
TBD
Launch date
2025-06-23
Launch site
AFWTR
Launch vehicle
Mass (kg)
RCS (m²)

External: N2YO · Heavens-Above · Gunter

§ Orbital elements

Epoch: 2026-09-21T20:36:25.428960Z

Period
96.24 min
Inclination
97.7804°
Eccentricity
0.0000806
Mean motion
14.96307101 rev/d
Perigee alt
577.8 km
Apogee alt
578.9 km
Semi-major
6,956.5 km
B*
2.8183e-4
RAAN
18.8631°
Arg perigee
84.2075°
Mean anomaly
275.9239°
Rev number
6,836

§ Raw data

TRANSPORTER-14 OBJECT AJ1 64560U 25135AJ  26264.85862765  .00003128  00000+0  28183-3 0  99922 64560  97.7804  18.8631 0000806  84.2075 275.9239 14.96307101 68367

JSON: /api/v1/satellites/64560 · /tle

For live sub-satellite position, see the globe view (requires WebGL).

§ Visibility from observer

Set your observer location to see the next 7 days of passes ≥ 10°. The values pass through the URL so the page stays shareable.

No JS? Fill the form by hand. The geolocation button needs JavaScript.